Time,TemperatureF,DewpointF,PressureIn,WindDirection,WindDirectionDegrees,WindSpeedMPH,WindSpeedGustMPH,Humidity,HourlyPrecipIn,Conditions,Clouds,dailyrainin,SoftwareType,DateUTC
2013-04-10 00:00:00,17.4,-4.4,29.44,WNW,294,0.0,0.0,37,0.00,,---,0.00,VWS V13.00,2013-04-10 08:00:00,
2013-04-10 00:05:00,17.6,-4.2,29.44,West,272,7.2,7.2,37,0.00,,---,0.00,VWS V13.00,2013-04-10 08:05:00,
2013-04-10 00:10:00,17.4,-4.4,29.44,WNW,290,0.0,7.2,37,0.00,,---,0.00,VWS V13.00,2013-04-10 08:10:00,
2013-04-10 00:15:00,17.4,-4.4,29.44,SW,233,0.0,7.2,37,0.00,,---,0.00,VWS V13.00,2013-04-10 08:15:00,
2013-04-10 00:20:00,17.4,-4.4,29.44,NW,319,0.0,0.0,37,0.00,,---,0.00,VWS V13.00,2013-04-10 08:20:00,
2013-04-10 00:25:00,17.1,-4.7,29.44,WNW,298,0.0,0.0,37,0.00,,---,0.00,VWS V13.00,2013-04-10 08:25:00,
2013-04-10 00:30:00,17.1,-4.7,29.44,SW,217,0.0,0.0,37,0.00,,---,0.00,VWS V13.00,2013-04-10 08:30:00,
2013-04-10 00:35:00,17.1,-4.7,29.44,South,180,0.0,0.0,37,0.00,,---,0.00,VWS V13.00,2013-04-10 08:35:00,
2013-04-10 00:40:00,16.7,-5.0,29.44,East,84,0.0,0.0,37,0.00,,---,0.00,VWS V13.00,2013-04-10 08:40:00,
2013-04-10 00:45:00,16.9,-4.9,29.44,East,98,0.0,0.0,37,0.00,,---,0.00,VWS V13.00,2013-04-10 08:45:00,
2013-04-10 00:50:00,16.9,-4.9,29.47,SW,232,0.0,0.0,37,0.00,,---,0.00,VWS V13.00,2013-04-10 08:50:00,
2013-04-10 00:55:00,16.9,-4.9,29.47,East,89,0.0,0.0,37,0.00,,---,0.00,VWS V13.00,2013-04-10 08:55:00,
2013-04-10 01:00:00,16.9,-4.9,29.47,NW,311,0.0,0.0,37,0.00,,---,0.00,VWS V13.00,2013-04-10 09:00:00,
2013-04-10 01:05:00,17.1,-4.7,29.47,NW,306,0.0,0.0,37,0.00,,---,0.00,VWS V13.00,2013-04-10 09:05:00,
2013-04-10 01:10:00,17.1,-4.7,29.47,SSW,213,0.0,3.1,37,0.00,,---,0.00,VWS V13.00,2013-04-10 09:10:00,
2013-04-10 01:15:00,17.4,-4.4,29.47,SW,221,0.0,3.1,37,0.00,,---,0.00,VWS V13.00,2013-04-10 09:15:00,
2013-04-10 01:20:00,17.4,-4.4,29.47,SSE,155,0.0,0.0,37,0.00,,---,0.00,VWS V13.00,2013-04-10 09:20:00,
2013-04-10 01:25:00,17.4,-4.4,29.47,SSE,159,0.0,0.0,37,0.00,,---,0.00,VWS V13.00,2013-04-10 09:25:00,
2013-04-10 01:30:00,17.4,-4.4,29.47,SE,126,0.0,0.0,37,0.00,,---,0.00,VWS V13.00,2013-04-10 09:30:00,
2013-04-10 01:35:00,17.8,-4.1,29.47,SW,236,0.0,0.0,37,0.00,,---,0.00,VWS V13.00,2013-04-10 09:35:00,
2013-04-10 01:40:00,18.0,-3.9,29.47,SSW,204,0.0,0.0,37,0.00,,---,0.00,VWS V13.00,2013-04-10 09:40:00,
2013-04-10 01:45:00,18.3,-3.6,29.47,SSW,197,0.0,0.0,37,0.00,,---,0.00,VWS V13.00,2013-04-10 09:45:00,
2013-04-10 01:50:00,18.0,-3.9,29.47,ENE,72,0.0,0.0,37,0.00,,---,0.00,VWS V13.00,2013-04-10 09:50:00,
2013-04-10 01:55:00,17.8,-4.1,29.47,WSW,258,0.0,0.0,37,0.00,,---,0.00,VWS V13.00,2013-04-10 09:55:00,
2013-04-10 02:00:00,17.6,-4.2,29.50,WNW,294,0.0,0.0,37,0.00,,---,0.00,VWS V13.00,2013-04-10 10:00:00,
2013-04-10 02:05:00,17.8,-4.1,29.50,WNW,294,0.0,0.0,37,0.00,,---,0.00,VWS V13.00,2013-04-10 10:05:00,
2013-04-10 02:10:00,17.8,-4.1,29.50,NNW,340,0.0,0.0,37,0.00,,---,0.00,VWS V13.00,2013-04-10 10:10:00,
2013-04-10 02:15:00,17.8,-4.1,29.50,SSW,201,0.0,0.0,37,0.00,,---,0.00,VWS V13.00,2013-04-10 10:15:00,
2013-04-10 02:20:00,17.8,-4.1,29.50,WNW,290,0.0,0.0,37,0.00,,---,0.00,VWS V13.00,2013-04-10 10:20:00,
2013-04-10 02:25:00,17.8,-4.1,29.50,WNW,285,0.0,0.0,37,0.00,,---,0.00,VWS V13.00,2013-04-10 10:25:00,
2013-04-10 02:30:00,18.1,-3.7,29.50,NE,35,0.0,0.0,37,0.00,,---,0.00,VWS V13.00,2013-04-10 10:30:00,
2013-04-10 02:35:00,18.1,-3.7,29.50,NNW,345,0.0,0.0,37,0.00,,---,0.00,VWS V13.00,2013-04-10 10:35:00,
2013-04-10 02:40:00,18.0,-3.9,29.50,WSW,245,0.0,0.0,37,0.00,,---,0.00,VWS V13.00,2013-04-10 10:40:00,
2013-04-10 02:45:00,17.8,-4.1,29.50,WSW,254,0.0,0.0,37,0.00,,---,0.00,VWS V13.00,2013-04-10 10:45:00,
2013-04-10 02:50:00,17.4,-4.4,29.50,SW,219,0.0,8.7,37,0.00,,---,0.00,VWS V13.00,2013-04-10 10:50:00,
2013-04-10 02:55:00,17.2,-4.6,29.50,WSW,243,0.0,8.7,37,0.00,,---,0.00,VWS V13.00,2013-04-10 10:55:00,
2013-04-10 03:00:00,17.1,-4.7,29.50,SW,228,0.0,0.0,37,0.00,,---,0.00,VWS V13.00,2013-04-10 11:00:00,
2013-04-10 03:05:00,17.1,-4.7,29.50,WSW,237,3.6,3.6,37,0.00,,---,0.00,VWS V13.00,2013-04-10 11:05:00,
2013-04-10 03:10:00,17.1,-4.7,29.50,WSW,245,0.0,3.6,37,0.00,,---,0.00,VWS V13.00,2013-04-10 11:10:00,
2013-04-10 03:15:00,17.1,-4.7,29.50,SW,234,0.0,3.6,37,0.00,,---,0.00,VWS V13.00,2013-04-10 11:15:00,
2013-04-10 03:20:00,16.9,-4.9,29.53,WNW,300,0.0,0.0,37,0.00,,---,0.00,VWS V13.00,2013-04-10 11:20:00,
2013-04-10 03:25:00,16.9,-4.9,29.53,SSW,199,0.0,0.0,37,0.00,,---,0.00,VWS V13.00,2013-04-10 11:25:00,
2013-04-10 03:30:00,16.9,-4.9,29.53,WSW,238,0.0,0.0,37,0.00,,---,0.00,VWS V13.00,2013-04-10 11:30:00,
2013-04-10 03:35:00,16.9,-4.9,29.53,SW,230,0.0,0.0,37,0.00,,---,0.00,VWS V13.00,2013-04-10 11:35:00,
2013-04-10 03:40:00,16.9,-4.9,29.53,NW,325,0.0,0.0,37,0.00,,---,0.00,VWS V13.00,2013-04-10 11:40:00,
2013-04-10 03:45:00,16.9,-4.9,29.53,WNW,303,8.3,8.7,37,0.00,,---,0.00,VWS V13.00,2013-04-10 11:45:00,
2013-04-10 03:50:00,16.9,-4.9,29.53,NNW,332,5.4,8.7,37,0.00,,---,0.00,VWS V13.00,2013-04-10 11:50:00,
2013-04-10 03:55:00,16.9,-4.9,29.53,NW,314,3.1,8.7,37,0.00,,---,0.00,VWS V13.00,2013-04-10 11:55:00,
2013-04-10 04:00:00,16.7,-5.0,29.53,NW,306,0.0,0.0,37,0.00,,---,0.00,VWS V13.00,2013-04-10 12:00:00,
2013-04-10 04:05:00,16.9,-4.9,29.53,WNW,291,0.0,6.3,37,0.00,,---,0.00,VWS V13.00,2013-04-10 12:05:00,
2013-04-10 04:10:00,16.7,-5.0,29.53,NNW,343,0.0,8.3,37,0.00,,---,0.00,VWS V13.00,2013-04-10 12:10:00,
2013-04-10 04:15:00,16.5,-5.2,29.53,SW,236,0.0,8.3,37,0.00,,---,0.00,VWS V13.00,2013-04-10 12:15:00,
2013-04-10 04:20:00,16.5,-5.2,29.53,NW,304,0.0,0.0,37,0.00,,---,0.00,VWS V13.00,2013-04-10 12:20:00,
2013-04-10 04:25:00,16.5,-5.2,29.53,NW,313,0.0,3.6,37,0.00,,---,0.00,VWS V13.00,2013-04-10 12:25:00,
2013-04-10 04:30:00,16.5,-5.2,29.53,West,266,0.0,3.6,37,0.00,,---,0.00,VWS V13.00,2013-04-10 12:30:00,
2013-04-10 04:35:00,16.7,-5.0,29.53,NNE,17,0.0,3.6,37,0.00,,---,0.00,VWS V13.00,2013-04-10 12:35:00,
2013-04-10 04:40:00,16.5,-5.2,29.53,WNW,292,0.0,0.0,37,0.00,,---,0.00,VWS V13.00,2013-04-10 12:40:00,
2013-04-10 04:45:00,16.2,-5.5,29.53,NW,314,6.3,12.3,37,0.00,,---,0.00,VWS V13.00,2013-04-10 12:45:00,
2013-04-10 04:50:00,16.2,-5.5,29.53,North,6,6.3,12.3,37,0.00,,---,0.00,VWS V13.00,2013-04-10 12:50:00,
2013-04-10 04:55:00,16.2,-5.5,29.53,NNW,333,3.1,12.3,37,0.00,,---,0.00,VWS V13.00,2013-04-10 12:55:00,
2013-04-10 05:00:00,16.3,-5.4,29.53,NNW,341,6.3,6.3,37,0.00,,---,0.00,VWS V13.00,2013-04-10 13:00:00,
2013-04-10 05:05:00,16.2,-5.5,29.53,NW,318,0.0,6.3,37,0.00,,---,0.00,VWS V13.00,2013-04-10 13:05:00,
2013-04-10 05:10:00,16.2,-5.5,29.53,West,274,0.0,6.3,37,0.00,,---,0.00,VWS V13.00,2013-04-10 13:10:00,
2013-04-10 05:15:00,16.2,-5.5,29.53,WNW,292,0.0,6.3,37,0.00,,---,0.00,VWS V13.00,2013-04-10 13:15:00,
2013-04-10 05:20:00,16.2,-5.5,29.53,WNW,303,0.0,0.0,37,0.00,,---,0.00,VWS V13.00,2013-04-10 13:20:00,
2013-04-10 05:25:00,16.2,-5.5,29.53,WNW,294,0.0,0.0,37,0.00,,---,0.00,VWS V13.00,2013-04-10 13:25:00,
2013-04-10 05:30:00,16.2,-5.5,29.53,WNW,294,0.0,0.0,37,0.00,,---,0.00,VWS V13.00,2013-04-10 13:30:00,
2013-04-10 05:35:00,16.2,-5.5,29.56,NW,305,0.0,0.0,37,0.00,,---,0.00,VWS V13.00,2013-04-10 13:35:00,
2013-04-10 05:40:00,16.0,-5.7,29.56,NW,304,0.0,0.0,37,0.00,,---,0.00,VWS V13.00,2013-04-10 13:40:00,
2013-04-10 05:45:00,16.0,-5.7,29.56,NNW,340,0.0,0.0,37,0.00,,---,0.00,VWS V13.00,2013-04-10 13:45:00,
2013-04-10 05:50:00,16.0,-5.7,29.56,NW,311,3.6,3.6,37,0.00,,---,0.00,VWS V13.00,2013-04-10 13:50:00,
2013-04-10 05:55:00,16.0,-5.1,29.56,WNW,290,0.0,8.1,38,0.00,,---,0.00,VWS V13.00,2013-04-10 13:55:00,
2013-04-10 06:00:00,16.0,-5.1,29.56,West,276,0.0,0.0,38,0.00,,---,0.00,VWS V13.00,2013-04-10 14:00:00,
2013-04-10 06:05:00,16.0,-5.7,29.56,NNW,331,5.8,5.8,37,0.00,,---,0.00,VWS V13.00,2013-04-10 14:05:00,
2013-04-10 06:10:00,16.0,-5.7,29.56,NNW,342,0.0,5.8,37,0.00,,---,0.00,VWS V13.00,2013-04-10 14:10:00,
2013-04-10 06:15:00,16.2,-5.0,29.56,SW,223,0.0,15.4,38,0.00,,---,0.00,VWS V13.00,2013-04-10 14:15:00,
2013-04-10 06:20:00,16.2,-5.0,29.56,WSW,245,0.0,0.0,38,0.00,,---,0.00,VWS V13.00,2013-04-10 14:20:00,
2013-04-10 06:25:00,16.2,-5.5,29.56,NW,305,0.0,11.0,37,0.00,,---,0.00,VWS V13.00,2013-04-10 14:25:00,
2013-04-10 06:30:00,16.5,-5.2,29.56,NW,305,0.0,11.0,37,0.00,,---,0.00,VWS V13.00,2013-04-10 14:30:00,
2013-04-10 06:35:00,16.5,-5.2,29.56,WNW,293,0.0,11.0,37,0.00,,---,0.00,VWS V13.00,2013-04-10 14:35:00,
2013-04-10 06:40:00,16.5,-5.2,29.56,NE,55,0.0,0.0,37,0.00,,---,0.00,VWS V13.00,2013-04-10 14:40:00,
2013-04-10 06:45:00,16.5,-5.2,29.56,NW,312,0.0,13.2,37,0.00,,---,0.00,VWS V13.00,2013-04-10 14:45:00,
2013-04-10 06:50:00,16.5,-5.2,29.56,SSW,206,0.0,13.2,37,0.00,,---,0.00,VWS V13.00,2013-04-10 14:50:00,
2013-04-10 06:55:00,16.5,-5.2,29.56,North,3,0.0,13.2,37,0.00,,---,0.00,VWS V13.00,2013-04-10 14:55:00,
2013-04-10 07:00:00,16.7,-5.0,29.56,West,281,0.0,0.0,37,0.00,,---,0.00,VWS V13.00,2013-04-10 15:00:00,
2013-04-10 07:05:00,16.7,-5.0,29.56,North,357,0.0,8.7,37,0.00,,---,0.00,VWS V13.00,2013-04-10 15:05:00,
2013-04-10 07:10:00,16.7,-5.0,29.56,North,11,0.0,8.7,37,0.00,,---,0.00,VWS V13.00,2013-04-10 15:10:00,
2013-04-10 07:15:00,16.7,-5.0,29.56,NE,55,0.0,8.7,37,0.00,,---,0.00,VWS V13.00,2013-04-10 15:15:00,
2013-04-10 07:20:00,16.7,-5.0,29.59,NW,322,0.0,0.0,37,0.00,,---,0.00,VWS V13.00,2013-04-10 15:20:00,
2013-04-10 07:25:00,16.5,-5.2,29.59,NNW,341,0.0,0.0,37,0.00,,---,0.00,VWS V13.00,2013-04-10 15:25:00,
2013-04-10 07:30:00,16.7,-5.0,29.59,NNE,27,0.0,6.7,37,0.00,,---,0.00,VWS V13.00,2013-04-10 15:30:00,
2013-04-10 07:35:00,16.9,-4.9,29.59,West,278,0.0,10.1,37,0.00,,---,0.00,VWS V13.00,2013-04-10 15:35:00,
2013-04-10 07:40:00,17.1,-4.7,29.59,WNW,303,0.0,0.0,37,0.00,,---,0.00,VWS V13.00,2013-04-10 15:40:00,
2013-04-10 07:45:00,17.2,-5.1,29.59,North,1,0.0,0.0,36,0.00,,---,0.00,VWS V13.00,2013-04-10 15:45:00,
2013-04-10 07:50:00,17.2,-5.1,29.59,NNW,327,0.0,0.0,36,0.00,,---,0.00,VWS V13.00,2013-04-10 15:50:00,
2013-04-10 07:55:00,17.2,-4.6,29.59,North,4,0.0,0.0,37,0.00,,---,0.00,VWS V13.00,2013-04-10 15:55:00,
2013-04-10 08:00:00,17.2,-4.6,29.59,North,3,0.0,0.0,37,0.00,,---,0.00,VWS V13.00,2013-04-10 16:00:00,
2013-04-10 08:05:00,17.4,-4.4,29.59,West,272,0.0,0.0,37,0.00,,---,0.00,VWS V13.00,2013-04-10 16:05:00,
2013-04-10 08:10:00,17.6,-4.8,29.59,WNW,288,0.0,0.0,36,0.00,,---,0.00,VWS V13.00,2013-04-10 16:10:00,
2013-04-10 08:15:00,17.6,-4.8,29.59,NW,304,0.0,0.0,36,0.00,,---,0.00,VWS V13.00,2013-04-10 16:15:00,
2013-04-10 08:20:00,17.8,-4.6,29.59,West,272,0.0,0.0,36,0.00,,---,0.00,VWS V13.00,2013-04-10 16:20:00,
2013-04-10 08:25:00,18.1,-4.3,29.59,SSW,200,0.0,0.0,36,0.00,,---,0.00,VWS V13.00,2013-04-10 16:25:00,
2013-04-10 08:30:00,18.3,-4.2,29.59,SSW,199,0.0,0.0,36,0.00,,---,0.00,VWS V13.00,2013-04-10 16:30:00,
2013-04-10 08:35:00,18.5,-4.0,29.59,SSW,210,0.0,0.0,36,0.00,,---,0.00,VWS V13.00,2013-04-10 16:35:00,
2013-04-10 08:40:00,18.5,-4.0,29.59,WSW,246,0.0,0.0,36,0.00,,---,0.00,VWS V13.00,2013-04-10 16:40:00,
2013-04-10 08:45:00,18.9,-3.7,29.59,SW,216,0.0,0.0,36,0.00,,---,0.00,VWS V13.00,2013-04-10 16:45:00,
2013-04-10 08:50:00,18.9,-3.7,29.59,SSW,211,0.0,0.0,36,0.00,,---,0.00,VWS V13.00,2013-04-10 16:50:00,
2013-04-10 08:55:00,20.7,-2.1,29.59,SW,234,0.0,0.0,36,0.00,,---,0.00,VWS V13.00,2013-04-10 16:55:00,
2013-04-10 09:00:00,21.9,-1.5,29.59,WSW,237,0.0,0.0,35,0.00,,---,0.00,VWS V13.00,2013-04-10 17:00:00,
2013-04-10 09:05:00,21.9,-1.5,29.59,WNW,288,0.0,0.0,35,0.00,,---,0.00,VWS V13.00,2013-04-10 17:05:00,
2013-04-10 09:10:00,24.3,0.6,29.59,WSW,241,0.0,0.0,35,0.00,,---,0.00,VWS V13.00,2013-04-10 17:10:00,
2013-04-10 09:15:00,25.5,1.1,29.59,SW,223,0.0,0.0,34,0.00,,---,0.00,VWS V13.00,2013-04-10 17:15:00,
2013-04-10 09:20:00,27.1,1.9,29.59,SW,223,0.0,0.0,33,0.00,,---,0.00,VWS V13.00,2013-04-10 17:20:00,
2013-04-10 09:25:00,27.3,2.0,29.62,SW,233,0.0,0.0,33,0.00,,---,0.00,VWS V13.00,2013-04-10 17:25:00,
2013-04-10 09:30:00,28.2,2.8,29.62,WSW,240,0.0,0.0,33,0.00,,---,0.00,VWS V13.00,2013-04-10 17:30:00,
2013-04-10 09:35:00,27.9,1.8,29.62,NNW,334,0.0,0.0,32,0.00,,---,0.00,VWS V13.00,2013-04-10 17:35:00,
2013-04-10 09:40:00,27.9,1.8,29.62,East,87,0.0,0.0,32,0.00,,---,0.00,VWS V13.00,2013-04-10 17:40:00,
2013-04-10 09:45:00,27.5,1.5,29.62,West,260,0.0,0.0,32,0.00,,---,0.00,VWS V13.00,2013-04-10 17:45:00,
2013-04-10 09:50:00,28.6,2.5,29.62,WSW,246,0.0,0.0,32,0.00,,---,0.00,VWS V13.00,2013-04-10 17:50:00,
2013-04-10 09:55:00,28.4,1.6,29.62,North,357,0.0,0.0,31,0.00,,---,0.00,VWS V13.00,2013-04-10 17:55:00,
2013-04-10 10:00:00,28.6,1.8,29.62,NNW,337,0.0,0.0,31,0.00,,---,0.00,VWS V13.00,2013-04-10 18:00:00,
2013-04-10 10:05:00,28.6,1.8,29.62,ESE,108,0.0,0.0,31,0.00,,---,0.00,VWS V13.00,2013-04-10 18:05:00,
2013-04-10 10:10:00,29.7,2.7,29.62,SW,217,0.0,0.0,31,0.00,,---,0.00,VWS V13.00,2013-04-10 18:10:00,
2013-04-10 10:15:00,29.5,1.9,29.62,SW,217,0.0,0.0,30,0.00,,---,0.00,VWS V13.00,2013-04-10 18:15:00,
2013-04-10 10:20:00,31.3,4.2,29.62,NW,326,0.0,0.0,31,0.00,,---,0.00,VWS V13.00,2013-04-10 18:20:00,
2013-04-10 10:25:00,30.9,1.7,29.62,NW,316,0.0,0.0,28,0.00,,---,0.00,VWS V13.00,2013-04-10 18:25:00,
2013-04-10 10:30:00,30.6,3.5,29.62,SSW,198,0.0,0.0,31,0.00,,---,0.00,VWS V13.00,2013-04-10 18:30:00,
2013-04-10 10:35:00,31.1,4.0,29.62,WSW,251,0.0,3.1,31,0.00,,---,0.00,VWS V13.00,2013-04-10 18:35:00,
2013-04-10 10:40:00,30.7,3.0,29.62,WSW,251,0.0,3.1,30,0.00,,---,0.00,VWS V13.00,2013-04-10 18:40:00,
2013-04-10 10:45:00,30.9,3.1,29.62,WNW,288,0.0,0.0,30,0.00,,---,0.00,VWS V13.00,2013-04-10 18:45:00,
2013-04-10 10:50:00,31.1,3.3,29.65,West,280,0.0,0.0,30,0.00,,---,0.00,VWS V13.00,2013-04-10 18:50:00,
2013-04-10 10:55:00,29.7,2.0,29.65,West,280,0.0,0.0,30,0.00,,---,0.00,VWS V13.00,2013-04-10 18:55:00,
2013-04-10 11:00:00,29.7,2.0,29.65,NW,323,0.0,0.0,30,0.00,,---,0.00,VWS V13.00,2013-04-10 19:00:00,
2013-04-10 11:05:00,30.2,1.0,29.65,NW,323,0.0,0.0,28,0.00,,---,0.00,VWS V13.00,2013-04-10 19:05:00,
2013-04-10 11:10:00,30.2,1.0,29.65,WNW,302,0.0,0.0,28,0.00,,---,0.00,VWS V13.00,2013-04-10 19:10:00,
2013-04-10 11:15:00,32.2,5.0,29.65,SSW,202,0.0,3.6,31,0.00,,---,0.00,VWS V13.00,2013-04-10 19:15:00,
2013-04-10 11:20:00,33.4,6.1,29.65,WSW,244,0.0,3.6,31,0.00,,---,0.00,VWS V13.00,2013-04-10 19:20:00,
2013-04-10 11:25:00,33.4,6.1,29.65,WNW,283,0.0,0.0,31,0.00,,---,0.00,VWS V13.00,2013-04-10 19:25:00,
2013-04-10 11:30:00,34.0,5.8,29.65,WNW,298,0.0,0.0,30,0.00,,---,0.00,VWS V13.00,2013-04-10 19:30:00,
2013-04-10 11:35:00,33.8,5.7,29.65,WNW,298,0.0,0.0,30,0.00,,---,0.00,VWS V13.00,2013-04-10 19:35:00,
2013-04-10 11:40:00,32.0,2.6,29.65,WSW,257,0.0,0.0,28,0.00,,---,0.00,VWS V13.00,2013-04-10 19:40:00,
2013-04-10 11:45:00,32.4,5.1,29.65,WSW,257,0.0,0.0,31,0.00,,---,0.00,VWS V13.00,2013-04-10 19:45:00,
2013-04-10 11:50:00,32.4,5.1,29.65,West,281,0.0,0.0,31,0.00,,---,0.00,VWS V13.00,2013-04-10 19:50:00,
2013-04-10 11:55:00,33.3,5.9,29.65,SW,223,0.0,13.2,31,0.00,,---,0.00,VWS V13.00,2013-04-10 19:55:00,
2013-04-10 12:00:00,33.3,5.9,29.65,SW,223,0.0,13.2,31,0.00,,---,0.00,VWS V13.00,2013-04-10 20:00:00,
2013-04-10 12:05:00,34.0,6.5,29.65,SW,225,0.0,0.0,31,0.00,,---,0.00,VWS V13.00,2013-04-10 20:05:00,
2013-04-10 12:10:00,33.6,5.5,29.65,NNE,24,0.0,0.0,30,0.00,,---,0.00,VWS V13.00,2013-04-10 20:10:00,
2013-04-10 12:15:00,33.8,6.4,29.65,NNE,24,0.0,0.0,31,0.00,,---,0.00,VWS V13.00,2013-04-10 20:15:00,
2013-04-10 12:20:00,33.6,5.5,29.68,SSW,200,0.0,0.0,30,0.00,,---,0.00,VWS V13.00,2013-04-10 20:20:00,
2013-04-10 12:25:00,33.6,5.5,29.68,SSW,200,0.0,0.0,30,0.00,,---,0.00,VWS V13.00,2013-04-10 20:25:00,
2013-04-10 12:30:00,31.3,3.5,29.68,NNW,340,0.0,7.6,30,0.00,,---,0.00,VWS V13.00,2013-04-10 20:30:00,
2013-04-10 12:35:00,30.2,2.5,29.68,SE,136,0.0,7.6,30,0.00,,---,0.00,VWS V13.00,2013-04-10 20:35:00,
2013-04-10 12:40:00,29.5,2.6,29.68,SE,136,0.0,7.6,31,0.00,,---,0.00,VWS V13.00,2013-04-10 20:40:00,
2013-04-10 12:45:00,29.5,2.6,29.68,NW,326,0.0,0.0,31,0.00,,---,0.00,VWS V13.00,2013-04-10 20:45:00,
2013-04-10 12:50:00,29.8,2.9,29.68,NE,34,0.0,0.0,31,0.00,,---,0.00,VWS V13.00,2013-04-10 20:50:00,
2013-04-10 12:55:00,29.5,3.3,29.68,WSW,256,0.0,0.0,32,0.00,,---,0.00,VWS V13.00,2013-04-10 20:55:00,
2013-04-10 13:00:00,29.8,2.2,29.68,NW,324,0.0,0.0,30,0.00,,---,0.00,VWS V13.00,2013-04-10 21:00:00,
2013-04-10 13:05:00,31.5,4.3,29.68,NW,324,0.0,0.0,31,0.00,,---,0.00,VWS V13.00,2013-04-10 21:05:00,
2013-04-10 13:10:00,31.5,4.3,29.68,North,9,0.0,0.0,31,0.00,,---,0.00,VWS V13.00,2013-04-10 21:10:00,
2013-04-10 13:15:00,31.5,4.3,29.68,SSW,213,0.0,0.0,31,0.00,,---,0.00,VWS V13.00,2013-04-10 21:15:00,
2013-04-10 13:20:00,31.1,3.3,29.68,North,7,0.0,0.0,30,0.00,,---,0.00,VWS V13.00,2013-04-10 21:20:00,
2013-04-10 13:25:00,30.4,4.1,29.68,WSW,252,0.0,0.0,32,0.00,,---,0.00,VWS V13.00,2013-04-10 21:25:00,
2013-04-10 13:30:00,30.4,4.1,29.68,NW,309,3.1,3.1,32,0.00,,---,0.00,VWS V13.00,2013-04-10 21:30:00,
2013-04-10 13:35:00,32.4,4.4,29.68,NW,322,0.0,3.1,30,0.00,,---,0.00,VWS V13.00,2013-04-10 21:35:00,
2013-04-10 13:40:00,30.9,3.1,29.68,NNE,12,10.1,10.1,30,0.00,,---,0.00,VWS V13.00,2013-04-10 21:40:00,
2013-04-10 13:45:00,30.9,3.1,29.68,NNW,334,0.0,10.1,30,0.00,,---,0.00,VWS V13.00,2013-04-10 21:45:00,
2013-04-10 13:50:00,31.6,4.5,29.68,NE,39,7.6,10.1,31,0.00,,---,0.00,VWS V13.00,2013-04-10 21:50:00,
2013-04-10 13:55:00,29.5,2.6,29.68,WNW,303,0.0,10.1,31,0.00,,---,0.00,VWS V13.00,2013-04-10 21:55:00,
2013-04-10 14:00:00,31.1,6.0,29.68,WNW,303,0.0,10.1,34,0.00,,---,0.00,VWS V13.00,2013-04-10 22:00:00,
2013-04-10 14:05:00,31.5,4.3,29.68,West,271,0.0,0.0,31,0.00,,---,0.00,VWS V13.00,2013-04-10 22:05:00,
2013-04-10 14:10:00,32.0,4.1,29.71,WSW,257,5.4,5.4,30,0.00,,---,0.00,VWS V13.00,2013-04-10 22:10:00,
2013-04-10 14:15:00,31.1,4.0,29.71,WNW,302,0.0,5.4,31,0.00,,---,0.00,VWS V13.00,2013-04-10 22:15:00,
2013-04-10 14:20:00,31.1,4.0,29.71,WNW,303,0.0,5.4,31,0.00,,---,0.00,VWS V13.00,2013-04-10 22:20:00,
2013-04-10 14:25:00,34.0,7.2,29.71,SW,223,0.0,0.0,32,0.00,,---,0.00,VWS V13.00,2013-04-10 22:25:00,
2013-04-10 14:30:00,34.2,6.7,29.71,West,277,0.0,0.0,31,0.00,,---,0.00,VWS V13.00,2013-04-10 22:30:00,
2013-04-10 14:35:00,34.7,7.2,29.71,NW,312,0.0,0.0,31,0.00,,---,0.00,VWS V13.00,2013-04-10 22:35:00,
2013-04-10 14:40:00,34.0,5.8,29.71,NNW,345,7.6,7.6,30,0.00,,---,0.00,VWS V13.00,2013-04-10 22:40:00,
2013-04-10 14:45:00,34.0,5.8,29.71,NE,43,11.0,11.0,30,0.00,,---,0.00,VWS V13.00,2013-04-10 22:45:00,
2013-04-10 14:50:00,33.3,5.9,29.71,WNW,283,0.0,11.0,31,0.00,,---,0.00,VWS V13.00,2013-04-10 22:50:00,
2013-04-10 14:55:00,33.4,6.8,29.71,West,259,0.0,11.0,32,0.00,,---,0.00,VWS V13.00,2013-04-10 22:55:00,
2013-04-10 15:00:00,34.5,7.0,29.71,SW,233,7.2,7.2,31,0.00,,---,0.00,VWS V13.00,2013-04-10 23:00:00,
2013-04-10 15:05:00,34.3,6.1,29.71,WNW,298,3.6,7.2,30,0.00,,---,0.00,VWS V13.00,2013-04-10 23:05:00,
2013-04-10 15:10:00,34.3,6.1,29.71,WNW,302,6.3,7.2,30,0.00,,---,0.00,VWS V13.00,2013-04-10 23:10:00,
2013-04-10 15:15:00,33.6,6.2,29.71,WNW,293,10.5,10.5,31,0.00,,---,0.00,VWS V13.00,2013-04-10 23:15:00,
2013-04-10 15:20:00,33.4,6.1,29.71,WNW,293,10.5,10.5,31,0.00,,---,0.00,VWS V13.00,2013-04-10 23:20:00,
2013-04-10 15:25:00,34.9,7.3,29.71,West,281,0.0,10.5,31,0.00,,---,0.00,VWS V13.00,2013-04-10 23:25:00,
2013-04-10 15:30:00,34.9,7.3,29.71,WNW,286,0.0,10.5,31,0.00,,---,0.00,VWS V13.00,2013-04-10 23:30:00,
2013-04-10 15:35:00,34.9,7.3,29.71,South,172,0.0,10.5,31,0.00,,---,0.00,VWS V13.00,2013-04-10 23:35:00,
2013-04-10 15:40:00,34.3,6.9,29.71,West,260,0.0,0.0,31,0.00,,---,0.00,VWS V13.00,2013-04-10 23:40:00,
2013-04-10 15:45:00,34.3,6.9,29.71,West,260,0.0,0.0,31,0.00,,---,0.00,VWS V13.00,2013-04-10 23:45:00,
2013-04-10 15:50:00,34.3,6.9,29.71,NW,307,0.0,0.0,31,0.00,,---,0.00,VWS V13.00,2013-04-10 23:50:00,
2013-04-10 15:55:00,33.8,7.1,29.71,SW,214,0.0,0.0,32,0.00,,---,0.00,VWS V13.00,2013-04-10 23:55:00,
2013-04-10 16:00:00,33.8,7.1,29.71,NW,312,8.1,8.1,32,0.00,,---,0.00,VWS V13.00,2013-04-11 00:00:00,
2013-04-10 16:05:00,33.8,7.1,29.71,WNW,299,0.0,8.1,32,0.00,,---,0.00,VWS V13.00,2013-04-11 00:05:00,
2013-04-10 16:10:00,30.9,3.8,29.71,North,0,0.0,8.1,31,0.00,,---,0.00,VWS V13.00,2013-04-11 00:10:00,
2013-04-10 16:15:00,31.5,5.7,29.71,WNW,291,0.0,8.1,33,0.00,,---,0.00,VWS V13.00,2013-04-11 00:15:00,
2013-04-10 16:20:00,32.0,6.8,29.74,WNW,291,0.0,0.0,34,0.00,,---,0.00,VWS V13.00,2013-04-11 00:20:00,
2013-04-10 16:25:00,31.1,4.0,29.74,WNW,291,0.0,0.0,31,0.00,,---,0.00,VWS V13.00,2013-04-11 00:25:00,
2013-04-10 16:30:00,30.9,3.8,29.74,WSW,249,5.4,5.4,31,0.00,,---,0.00,VWS V13.00,2013-04-11 00:30:00,
2013-04-10 16:35:00,27.5,1.5,29.71,North,0,10.1,11.0,32,0.00,,---,0.00,VWS V13.00,2013-04-11 00:35:00,
2013-04-10 16:40:00,27.5,1.5,29.71,North,0,10.1,10.1,32,0.00,,---,0.00,VWS V13.00,2013-04-11 00:40:00,
2013-04-10 16:45:00,27.3,0.7,29.71,NNW,345,3.1,10.1,31,0.00,,---,0.00,VWS V13.00,2013-04-11 00:45:00,
2013-04-10 16:50:00,27.3,1.4,29.74,NNW,345,3.1,10.1,32,0.00,,---,0.00,VWS V13.00,2013-04-11 00:50:00,
2013-04-10 16:55:00,27.1,0.5,29.74,NNE,19,0.0,10.1,31,0.00,,---,0.00,VWS V13.00,2013-04-11 00:55:00,
2013-04-10 17:00:00,26.6,0.7,29.74,North,0,0.0,10.1,32,0.00,,---,0.00,VWS V13.00,2013-04-11 01:00:00,
2013-04-10 17:05:00,26.6,0.7,29.74,North,0,0.0,0.0,32,0.00,,---,0.00,VWS V13.00,2013-04-11 01:05:00,
2013-04-10 17:10:00,26.4,0.6,29.74,NNW,345,0.0,8.7,32,0.00,,---,0.00,VWS V13.00,2013-04-11 01:10:00,
2013-04-10 17:15:00,26.8,0.9,29.74,NNW,345,0.0,8.7,32,0.00,,---,0.00,VWS V13.00,2013-04-11 01:15:00,
2013-04-10 17:20:00,27.5,1.5,29.74,NW,321,4.5,4.5,32,0.00,,---,0.00,VWS V13.00,2013-04-11 01:20:00,
2013-04-10 17:25:00,27.9,2.5,29.74,WNW,292,0.0,4.5,33,0.00,,---,0.00,VWS V13.00,2013-04-11 01:25:00,
2013-04-10 17:30:00,27.3,1.4,29.74,WNW,292,0.0,4.5,32,0.00,,---,0.00,VWS V13.00,2013-04-11 01:30:00,
2013-04-10 17:35:00,26.4,1.2,29.74,NNW,331,0.0,4.5,33,0.00,,---,0.00,VWS V13.00,2013-04-11 01:35:00,
2013-04-10 17:40:00,26.6,0.7,29.74,NNW,331,0.0,4.5,32,0.00,,---,0.00,VWS V13.00,2013-04-11 01:40:00,
2013-04-10 17:45:00,27.0,1.0,29.74,NNW,331,0.0,0.0,32,0.00,,---,0.00,VWS V13.00,2013-04-11 01:45:00,
2013-04-10 17:50:00,26.8,0.9,29.74,NW,310,8.7,8.7,32,0.00,,---,0.00,VWS V13.00,2013-04-11 01:50:00,
2013-04-10 17:55:00,26.8,0.9,29.74,ENE,72,0.0,8.7,32,0.00,,---,0.00,VWS V13.00,2013-04-11 01:55:00,
2013-04-10 18:00:00,26.2,0.4,29.74,North,353,0.0,8.7,32,0.00,,---,0.00,VWS V13.00,2013-04-11 02:00:00,
2013-04-10 18:05:00,26.1,0.9,29.74,North,353,0.0,0.0,33,0.00,,---,0.00,VWS V13.00,2013-04-11 02:05:00,
2013-04-10 18:10:00,26.1,0.9,29.74,North,353,0.0,0.0,33,0.00,,---,0.00,VWS V13.00,2013-04-11 02:10:00,
2013-04-10 18:17:00,27.9,2.5,29.74,NW,307,0.0,0.0,33,0.00,,---,0.00,VWS V13.00,2013-04-11 02:17:00,
2013-04-10 18:22:00,26.2,1.1,29.74,NW,307,0.0,0.0,33,0.00,,---,0.00,VWS V13.00,2013-04-11 02:22:00,
2013-04-10 18:27:00,26.2,1.1,29.74,NNW,339,0.0,0.0,33,0.00,,---,0.00,VWS V13.00,2013-04-11 02:27:00,
2013-04-10 18:32:00,26.6,1.4,29.74,NNW,339,0.0,0.0,33,0.00,,---,0.00,VWS V13.00,2013-04-11 02:32:00,
2013-04-10 18:59:00,26.4,1.9,29.74,NNE,30,0.0,0.0,34,0.00,,---,0.00,VWS V13.00,2013-04-11 02:59:00,
2013-04-10 19:04:00,26.8,1.5,29.74,NW,304,0.0,0.0,33,0.00,,---,0.00,VWS V13.00,2013-04-11 03:04:00,
2013-04-10 19:09:00,27.0,1.7,29.74,WSW,254,0.0,0.0,33,0.00,,---,0.00,VWS V13.00,2013-04-11 03:09:00,
2013-04-10 19:14:00,27.0,1.7,29.74,WSW,254,0.0,0.0,33,0.00,,---,0.00,VWS V13.00,2013-04-11 03:14:00,
2013-04-10 19:19:00,26.6,1.4,29.74,North,353,0.0,0.0,33,0.00,,---,0.00,VWS V13.00,2013-04-11 03:19:00,
2013-04-10 19:24:00,26.1,1.5,29.74,NW,316,0.0,0.0,34,0.00,,---,0.00,VWS V13.00,2013-04-11 03:24:00,
2013-04-10 19:29:00,26.1,0.9,29.74,NE,43,0.0,0.0,33,0.00,,---,0.00,VWS V13.00,2013-04-11 03:29:00,
2013-04-10 19:34:00,26.4,1.9,29.74,SW,227,0.0,0.0,34,0.00,,---,0.00,VWS V13.00,2013-04-11 03:34:00,
2013-04-10 19:39:00,26.8,2.2,29.74,SW,227,0.0,0.0,34,0.00,,---,0.00,VWS V13.00,2013-04-11 03:39:00,
2013-04-10 19:44:00,26.8,1.5,29.74,NW,321,0.0,0.0,33,0.00,,---,0.00,VWS V13.00,2013-04-11 03:44:00,
2013-04-10 19:49:00,26.8,1.5,29.74,WNW,295,0.0,0.0,33,0.00,,---,0.00,VWS V13.00,2013-04-11 03:49:00,
2013-04-10 19:54:00,26.8,1.5,29.74,North,9,0.0,0.0,33,0.00,,---,0.00,VWS V13.00,2013-04-11 03:54:00,
2013-04-10 19:59:00,26.1,1.5,29.74,WSW,250,0.0,0.0,34,0.00,,---,0.00,VWS V13.00,2013-04-11 03:59:00,
2013-04-10 20:00:00,25.7,1.2,29.74,WSW,250,0.0,0.0,34,0.00,,---,0.00,VWS V13.00,2013-04-11 04:00:00,
2013-04-10 20:05:00,25.3,0.9,29.74,NW,304,0.0,0.0,34,0.00,,---,0.00,VWS V13.00,2013-04-11 04:05:00,
2013-04-10 20:10:00,25.3,0.9,29.74,SW,228,0.0,4.9,34,0.00,,---,0.00,VWS V13.00,2013-04-11 04:10:00,
2013-04-10 20:15:00,25.3,0.9,29.74,WNW,293,0.0,4.9,34,0.00,,---,0.00,VWS V13.00,2013-04-11 04:15:00,
2013-04-10 20:20:00,25.2,0.8,29.74,WNW,301,0.0,0.0,34,0.00,,---,0.00,VWS V13.00,2013-04-11 04:20:00,
2013-04-10 20:25:00,25.2,0.8,29.74,West,279,0.0,0.0,34,0.00,,---,0.00,VWS V13.00,2013-04-11 04:25:00,
2013-04-10 20:30:00,25.2,0.8,29.74,North,8,0.0,0.0,34,0.00,,---,0.00,VWS V13.00,2013-04-11 04:30:00,
2013-04-10 20:35:00,24.8,1.0,29.77,NNW,338,0.0,0.0,35,0.00,,---,0.00,VWS V13.00,2013-04-11 04:35:00,
2013-04-10 20:40:00,24.3,-0.1,29.77,WNW,302,0.0,0.0,34,0.00,,---,0.00,VWS V13.00,2013-04-11 04:40:00,
2013-04-10 20:45:00,24.4,0.7,29.77,West,279,0.0,0.0,35,0.00,,---,0.00,VWS V13.00,2013-04-11 04:45:00,
2013-04-10 20:50:00,24.3,-0.1,29.77,NNW,333,0.0,0.0,34,0.00,,---,0.00,VWS V13.00,2013-04-11 04:50:00,
2013-04-10 20:55:00,24.3,-0.1,29.77,WNW,302,0.0,0.0,34,0.00,,---,0.00,VWS V13.00,2013-04-11 04:55:00,
2013-04-10 21:00:00,24.3,0.6,29.77,WNW,301,0.0,0.0,35,0.00,,---,0.00,VWS V13.00,2013-04-11 05:00:00,
2013-04-10 21:05:00,23.7,0.1,29.77,North,353,0.0,0.0,35,0.00,,---,0.00,VWS V13.00,2013-04-11 05:05:00,
2013-04-10 21:10:00,23.5,-0.1,29.77,NW,314,0.0,0.0,35,0.00,,---,0.00,VWS V13.00,2013-04-11 05:10:00,
2013-04-10 21:15:00,23.5,-0.1,29.77,WNW,290,0.0,0.0,35,0.00,,---,0.00,VWS V13.00,2013-04-11 05:15:00,
2013-04-10 21:20:00,23.5,-0.1,29.77,NNW,340,0.0,0.0,35,0.00,,---,0.00,VWS V13.00,2013-04-11 05:20:00,
2013-04-10 21:25:00,23.2,-0.4,29.77,NW,320,0.0,0.0,35,0.00,,---,0.00,VWS V13.00,2013-04-11 05:25:00,
2013-04-10 21:30:00,23.2,-0.4,29.77,NW,306,0.0,0.0,35,0.00,,---,0.00,VWS V13.00,2013-04-11 05:30:00,
2013-04-10 21:35:00,23.2,-0.4,29.77,WNW,296,0.0,0.0,35,0.00,,---,0.00,VWS V13.00,2013-04-11 05:35:00,
2013-04-10 21:40:00,23.2,-0.4,29.77,SW,230,0.0,0.0,35,0.00,,---,0.00,VWS V13.00,2013-04-11 05:40:00,
2013-04-10 21:45:00,23.0,-0.6,29.77,WSW,241,0.0,0.0,35,0.00,,---,0.00,VWS V13.00,2013-04-11 05:45:00,
2013-04-10 21:50:00,23.0,0.0,29.77,WNW,302,0.0,0.0,36,0.00,,---,0.00,VWS V13.00,2013-04-11 05:50:00,
2013-04-10 21:55:00,22.8,-0.1,29.77,NW,321,0.0,0.0,36,0.00,,---,0.00,VWS V13.00,2013-04-11 05:55:00,
2013-04-10 22:00:00,22.8,-0.1,29.77,WNW,301,0.0,0.0,36,0.00,,---,0.00,VWS V13.00,2013-04-11 06:00:00,
2013-04-10 22:05:00,22.8,-0.1,29.77,NNW,329,0.0,0.0,36,0.00,,---,0.00,VWS V13.00,2013-04-11 06:05:00,
2013-04-10 22:10:00,22.8,-0.1,29.77,NW,323,0.0,0.0,36,0.00,,---,0.00,VWS V13.00,2013-04-11 06:10:00,
2013-04-10 22:15:00,22.8,-0.1,29.77,WSW,257,0.0,0.0,36,0.00,,---,0.00,VWS V13.00,2013-04-11 06:15:00,
2013-04-10 22:20:00,22.8,-0.1,29.77,WSW,257,0.0,0.0,36,0.00,,---,0.00,VWS V13.00,2013-04-11 06:20:00,
2013-04-10 22:25:00,22.8,-0.1,29.77,WNW,300,0.0,0.0,36,0.00,,---,0.00,VWS V13.00,2013-04-11 06:25:00,
2013-04-10 22:30:00,22.6,-0.3,29.77,WNW,299,0.0,0.0,36,0.00,,---,0.00,VWS V13.00,2013-04-11 06:30:00,
2013-04-10 22:35:00,22.6,-0.3,29.77,WNW,299,0.0,0.0,36,0.00,,---,0.00,VWS V13.00,2013-04-11 06:35:00,
2013-04-10 22:40:00,22.6,-0.3,29.77,NW,313,0.0,0.0,36,0.00,,---,0.00,VWS V13.00,2013-04-11 06:40:00,
2013-04-10 22:45:00,22.6,0.3,29.77,NW,323,0.0,0.0,37,0.00,,---,0.00,VWS V13.00,2013-04-11 06:45:00,
2013-04-10 22:50:00,22.6,0.3,29.77,NW,313,0.0,0.0,37,0.00,,---,0.00,VWS V13.00,2013-04-11 06:50:00,
2013-04-10 22:55:00,21.7,-0.5,29.77,NW,306,0.0,0.0,37,0.00,,---,0.00,VWS V13.00,2013-04-11 06:55:00,
2013-04-10 23:00:00,21.4,-0.8,29.77,NW,306,0.0,0.0,37,0.00,,---,0.00,VWS V13.00,2013-04-11 07:00:00,
2013-04-10 23:05:00,21.2,-1.0,29.77,NNW,327,0.0,0.0,37,0.00,,---,0.00,VWS V13.00,2013-04-11 07:05:00,
2013-04-10 23:10:00,21.0,-1.2,29.77,NW,324,0.0,0.0,37,0.00,,---,0.00,VWS V13.00,2013-04-11 07:10:00,
2013-04-10 23:15:00,21.0,-1.2,29.77,NNW,329,0.0,0.0,37,0.00,,---,0.00,VWS V13.00,2013-04-11 07:15:00,
2013-04-10 23:20:00,20.7,-0.9,29.80,NNW,329,0.0,0.0,38,0.00,,---,0.00,VWS V13.00,2013-04-11 07:20:00,
2013-04-10 23:25:00,20.7,-0.9,29.80,NE,47,0.0,0.0,38,0.00,,---,0.00,VWS V13.00,2013-04-11 07:25:00,
2013-04-10 23:30:00,19.8,-1.2,29.80,ENE,76,0.0,0.0,39,0.00,,---,0.00,VWS V13.00,2013-04-11 07:30:00,
2013-04-10 23:35:00,19.6,-1.3,29.80,ENE,76,0.0,0.0,39,0.00,,---,0.00,VWS V13.00,2013-04-11 07:35:00,
2013-04-10 23:40:00,19.6,-1.3,29.80,ENE,76,0.0,0.0,39,0.00,,---,0.00,VWS V13.00,2013-04-11 07:40:00,
2013-04-10 23:45:00,19.4,-1.0,29.80,ENE,76,0.0,0.0,40,0.00,,---,0.00,VWS V13.00,2013-04-11 07:45:00,
2013-04-10 23:50:00,19.4,-1.0,29.80,ENE,76,0.0,0.0,40,0.00,,---,0.00,VWS V13.00,2013-04-11 07:50:00,
2013-04-10 23:55:00,19.4,0.1,29.80,NNE,20,0.0,0.0,42,0.00,,---,0.00,VWS V13.00,2013-04-11 07:55:00,